| time (UTC) | temp F | wind direction | speed MPH | gust MPH | rain 1hr in | rain 24hr in | rain mn in | humidity % | barometer mb |
| 20260904205854 | 77 | 299 | 1.0 | 5.0 | 0.00 | 0.00 | 0.00 | 55 | 1022.7 |
| 20260904205646 | 77 | 303 | 1.0 | 5.0 | 0.00 | 0.00 | 0.00 | 55 | 1022.6 |
| 20260904205625 | 78 | 302 | 1.0 | 5.0 | 0.00 | 0.00 | 0.00 | 55 | 1022.7 |
| 20260904204853 | 77 | 310 | 1.0 | 5.0 | 0.00 | 0.00 | 0.00 | 56 | 1022.6 |
| 20260904204646 | 77 | 309 | 1.0 | 5.0 | 0.00 | 0.00 | 0.00 | 55 | 1022.6 |
| 20260904204624 | 78 | 304 | 1.0 | 5.0 | 0.00 | 0.00 | 0.00 | 56 | 1022.7 |
| 20260904203853 | 77 | 294 | 1.0 | 5.0 | 0.00 | 0.00 | 0.00 | 56 | 1022.6 |
| 20260904203647 | 77 | 293 | 1.0 | 5.0 | 0.00 | 0.00 | 0.00 | 56 | 1022.6 |
| 20260904203352 | 77 | 281 | 0.0 | 5.0 | 0.00 | 0.00 | 0.00 | 56 | 1022.6 |
| 20260904202852 | 77 | 270 | 0.0 | 3.0 | 0.00 | 0.00 | 0.00 | 56 | 1022.6 |
| 20260904202646 | 77 | 266 | 0.0 | 3.0 | 0.00 | 0.00 | 0.00 | 56 | 1022.6 |
| 20260904202352 | 78 | 271 | 0.0 | 3.0 | 0.00 | 0.00 | 0.00 | 56 | 1022.7 |
| 20260904201851 | 78 | 296 | 1.0 | 3.0 | 0.00 | 0.00 | 0.00 | 55 | 1022.7 |
| 20260904201646 | 78 | 308 | 0.0 | 5.0 | 0.00 | 0.00 | 0.00 | 55 | 1022.7 |
| 20260904201623 | 78 | 321 | 0.0 | 5.0 | 0.00 | 0.00 | 0.00 | 55 | 1022.7 |
| 20260904200851 | 78 | 295 | 1.0 | 5.0 | 0.00 | 0.00 | 0.00 | 56 | 1022.8 |
| 20260904200646 | 77 | 284 | 1.0 | 5.0 | 0.00 | 0.00 | 0.00 | 56 | 1022.7 |
| 20260904200628 | 77 | 274 | 1.0 | 5.0 | 0.00 | 0.00 | 0.00 | 57 | 1022.7 |
| 20260904195851 | 78 | 276 | 0.0 | 5.0 | 0.00 | 0.00 | 0.00 | 56 | 1022.7 |
| 20260904195643 | 77 | 281 | 1.0 | 3.0 | 0.00 | 0.00 | 0.00 | 56 | 1022.6 |
| 20260904195352 | 77 | 290 | 0.0 | 3.0 | 0.00 | 0.00 | 0.00 | 57 | 1022.6 |
| 20260904194852 | 78 | 301 | 0.0 | 3.0 | 0.00 | 0.00 | 0.00 | 56 | 1022.7 |
| 20260904194644 | 78 | 293 | 0.0 | 3.0 | 0.00 | 0.00 | 0.00 | 56 | 1022.6 |
| 20260904194622 | 78 | 278 | 0.0 | 3.0 | 0.00 | 0.00 | 0.00 | 56 | 1022.6 |
| 20260904193849 | 78 | 263 | 0.0 | 2.0 | 0.00 | 0.00 | 0.00 | 57 | 1022.4 |
| 20260904193644 | 78 | 260 | 0.0 | 2.0 | 0.00 | 0.00 | 0.00 | 56 | 1022.4 |
| 20260904193347 | 78 | 258 | 0.0 | 2.0 | 0.00 | 0.00 | 0.00 | 55 | 1022.6 |
| 20260904192847 | 79 | 261 | 0.0 | 2.0 | 0.00 | 0.00 | 0.00 | 55 | 1022.5 |
| 20260904192641 | 79 | 265 | 0.0 | 2.0 | 0.00 | 0.00 | 0.00 | 54 | 1022.6 |
| 20260904192347 | 79 | 269 | 0.0 | 2.0 | 0.00 | 0.00 | 0.00 | 53 | 1022.6 |
| 20260904191848 | 79 | 271 | 0.0 | 5.0 | 0.00 | 0.00 | 0.00 | 53 | 1022.6 |
| 20260904191642 | 79 | 274 | 0.0 | 5.0 | 0.00 | 0.00 | 0.00 | 53 | 1022.5 |
| 20260904191347 | 79 | 274 | 0.0 | 5.0 | 0.00 | 0.00 | 0.00 | 53 | 1022.6 |
| 20260904191127 | 80 | 281 | 1.0 | 5.0 | 0.00 | 0.00 | 0.00 | 53 | 1022.4 |
| 20260904190640 | 80 | 279 | 1.0 | 5.0 | 0.00 | 0.00 | 0.00 | 53 | 1022.5 |
| 20260904190621 | 80 | 278 | 1.0 | 5.0 | 0.00 | 0.00 | 0.00 | 52 | 1022.4 |
| 20260904190345 | 80 | 282 | 1.0 | 3.0 | 0.00 | 0.00 | 0.00 | 52 | 1022.4 |
| 20260904185641 | 80 | 291 | 0.0 | 3.0 | 0.00 | 0.00 | 0.00 | 52 | 1022.3 |
| 20260904185346 | 80 | 306 | 0.0 | 3.0 | 0.00 | 0.00 | 0.00 | 52 | 1022.4 |
| 20260904184846 | 80 | 282 | 0.0 | 2.0 | 0.00 | 0.00 | 0.00 | 52 | 1022.1 |
| 20260904184641 | 80 | 255 | 0.0 | 2.0 | 0.00 | 0.00 | 0.00 | 52 | 1022.1 |
| 20260904184616 | 79 | 218 | 0.0 | 1.0 | 0.00 | 0.00 | 0.00 | 53 | 1022.0 |
| 20260904183846 | 79 | 193 | 0.0 | 1.0 | 0.00 | 0.00 | 0.00 | 54 | 1021.7 |
| 20260904183640 | 79 | 191 | 0.0 | 1.0 | 0.00 | 0.00 | 0.00 | 54 | 1021.8 |
| 20260904183352 | 80 | 80 | 0.0 | 1.0 | 0.00 | 0.00 | 0.00 | 54 | 1021.6 |
| 20260904183347 | 80 | 176 | 0.0 | 1.0 | 0.00 | 0.00 | 0.00 | 54 | 1021.9 |
| 20260904182644 | 80 | 63 | 0.0 | 1.0 | 0.00 | 0.00 | 0.00 | 53 | 1021.7 |
| 20260904182346 | 80 | 57 | 0.0 | 3.0 | 0.00 | 0.00 | 0.00 | 53 | 1021.6 |
| 20260904181843 | 80 | 55 | 0.0 | 3.0 | 0.00 | 0.00 | 0.00 | 53 | 1021.6 |
| 20260904181641 | 81 | 54 | 0.0 | 3.0 | 0.00 | 0.00 | 0.00 | 53 | 1021.7 |
| 20260904181342 | 81 | 62 | 0.0 | 3.0 | 0.00 | 0.00 | 0.00 | 52 | 1021.6 |
| 20260904181111 | 81 | 159 | 0.0 | 3.0 | 0.00 | 0.00 | 0.00 | 52 | 1021.6 |
| 20260904180642 | 81 | 185 | 0.0 | 3.0 | 0.00 | 0.00 | 0.00 | 51 | 1021.6 |
| 20260904180341 | 82 | 172 | 0.0 | 2.0 | 0.00 | 0.00 | 0.00 | 51 | 1021.6 |
| 20260904175842 | 82 | 186 | 0.0 | 2.0 | 0.00 | 0.00 | 0.00 | 51 | 1021.4 |
| 20260904175641 | 82 | 201 | 0.0 | 3.0 | 0.00 | 0.00 | 0.00 | 50 | 1021.5 |
| 20260904175341 | 83 | 201 | 0.0 | 4.0 | 0.00 | 0.00 | 0.00 | 50 | 1021.6 |
| 20260904174841 | 83 | 243 | 0.0 | 4.0 | 0.00 | 0.00 | 0.00 | 49 | 1021.6 |
| 20260904174641 | 83 | 251 | 1.0 | 4.0 | 0.00 | 0.00 | 0.00 | 49 | 1021.7 |
| 20260904174341 | 84 | 253 | 1.0 | 4.0 | 0.00 | 0.00 | 0.00 | 48 | 1021.6 |
| 20260904173841 | 84 | 199 | 1.0 | 4.0 | 0.00 | 0.00 | 0.00 | 47 | 1021.4 |
| 20260904173641 | 84 | 162 | 1.0 | 4.0 | 0.00 | 0.00 | 0.00 | 47 | 1021.5 |
| 20260904173336 | 85 | 125 | 0.0 | 2.0 | 0.00 | 0.00 | 0.00 | 46 | 1021.5 |
| 20260904172835 | 85 | 113 | 0.0 | 4.0 | 0.00 | 0.00 | 0.00 | 45 | 1021.5 |
| 20260904172641 | 85 | 120 | 0.0 | 4.0 | 0.00 | 0.00 | 0.00 | 45 | 1021.5 |
| 20260904172337 | 85 | 126 | 0.0 | 4.0 | 0.00 | 0.00 | 0.00 | 44 | 1021.6 |
| 20260904171837 | 86 | 119 | 1.0 | 4.0 | 0.00 | 0.00 | 0.00 | 44 | 1021.6 |
| 20260904171642 | 86 | 113 | 1.0 | 4.0 | 0.00 | 0.00 | 0.00 | 43 | 1021.6 |
| 20260904171338 | 86 | 125 | 1.0 | 4.0 | 0.00 | 0.00 | 0.00 | 43 | 1021.5 |
| 20260904170836 | 87 | 138 | 0.0 | 3.0 | 0.00 | 0.00 | 0.00 | 42 | 1021.6 |
| 20260904170639 | 87 | 144 | 1.0 | 5.0 | 0.00 | 0.00 | 0.00 | 42 | 1021.5 |
| 20260904170335 | 87 | 153 | 1.0 | 5.0 | 0.00 | 0.00 | 0.00 | 42 | 1021.5 |
| 20260904165836 | 88 | 161 | 1.0 | 5.0 | 0.00 | 0.00 | 0.00 | 41 | 1021.6 |
| 20260904165640 | 89 | 158 | 1.0 | 5.0 | 0.00 | 0.00 | 0.00 | 40 | 1021.7 |
| 20260904165336 | 89 | 141 | 1.0 | 6.0 | 0.00 | 0.00 | 0.00 | 40 | 1021.6 |
| 20260904164837 | 89 | 156 | 2.0 | 6.0 | 0.00 | 0.00 | 0.00 | 40 | 1021.7 |
| 20260904164640 | 89 | 63 | 1.0 | 6.0 | 0.00 | 0.00 | 0.00 | 40 | 1021.7 |
| 20260904164336 | 89 | 274 | 1.0 | 6.0 | 0.00 | 0.00 | 0.00 | 39 | 1021.7 |
| 20260904163836 | 89 | 77 | 1.0 | 7.0 | 0.00 | 0.00 | 0.00 | 40 | 1021.6 |
| 20260904163640 | 89 | 200 | 1.0 | 7.0 | 0.00 | 0.00 | 0.00 | 40 | 1021.7 |
| 20260904163336 | 89 | 212 | 1.0 | 7.0 | 0.00 | 0.00 | 0.00 | 39 | 1021.7 |
| 20260904162835 | 90 | 159 | 2.0 | 7.0 | 0.00 | 0.00 | 0.00 | 39 | 1021.6 |
| 20260904162637 | 90 | 154 | 2.0 | 7.0 | 0.00 | 0.00 | 0.00 | 39 | 1021.5 |
| 20260904162336 | 90 | 161 | 2.0 | 7.0 | 0.00 | 0.00 | 0.00 | 39 | 1021.6 |
| 20260904162107 | 90 | 158 | 2.0 | 7.0 | 0.00 | 0.00 | 0.00 | 39 | 1021.6 |
| 20260904161637 | 90 | 162 | 2.0 | 7.0 | 0.00 | 0.00 | 0.00 | 39 | 1021.6 |
| 20260904161335 | 90 | 122 | 2.0 | 7.0 | 0.00 | 0.00 | 0.00 | 40 | 1021.5 |
| 20260904160837 | 90 | 138 | 2.0 | 7.0 | 0.00 | 0.00 | 0.00 | 39 | 1021.7 |
| 20260904160637 | 90 | 142 | 2.0 | 7.0 | 0.00 | 0.00 | 0.00 | 39 | 1021.7 |
| 20260904160336 | 90 | 150 | 2.0 | 10.0 | 0.00 | 0.00 | 0.00 | 39 | 1021.7 |
| 20260904155836 | 90 | 158 | 2.0 | 10.0 | 0.00 | 0.00 | 0.00 | 39 | 1021.8 |
| 20260904155637 | 90 | 162 | 2.0 | 10.0 | 0.00 | 0.00 | 0.00 | 39 | 1021.8 |
| 20260904155604 | 90 | 158 | 2.0 | 10.0 | 0.00 | 0.00 | 0.00 | 39 | 1021.8 |
| 20260904154836 | 90 | 132 | 3.0 | 11.0 | 0.00 | 0.00 | 0.00 | 39 | 1021.8 |
| 20260904154638 | 90 | 131 | 3.0 | 11.0 | 0.00 | 0.00 | 0.00 | 39 | 1021.7 |
| 20260904154335 | 90 | 139 | 2.0 | 11.0 | 0.00 | 0.00 | 0.00 | 39 | 1021.8 |
| 20260904153836 | 90 | 155 | 3.0 | 11.0 | 0.00 | 0.00 | 0.00 | 39 | 1021.7 |
| 20260904153638 | 90 | 140 | 3.0 | 11.0 | 0.00 | 0.00 | 0.00 | 39 | 1021.8 |
| 20260904153336 | 90 | 101 | 3.0 | 11.0 | 0.00 | 0.00 | 0.00 | 40 | 1021.8 |
| 20260904153111 | 91 | 17 | 2.0 | 8.0 | 0.00 | 0.00 | 0.00 | 40 | 1021.8 |
| 20260904152637 | 91 | 314 | 2.0 | 8.0 | 0.00 | 0.00 | 0.00 | 39 | 1021.8 |
| 20260904152335 | 91 | 259 | 2.0 | 8.0 | 0.00 | 0.00 | 0.00 | 39 | 1021.8 |
| 20260904151846 | 90 | 103 | 3.0 | 8.0 | 0.00 | 0.00 | 0.00 | 40 | 1021.9 |
| 20260904151837 | 91 | 142 | 3.0 | 8.0 | 0.00 | 0.00 | 0.00 | 39 | 1021.9 |
| 20260904151820 | 90 | 111 | 3.0 | 8.0 | 0.00 | 0.00 | 0.00 | 40 | 1021.9 |
| 20260904150834 | 90 | 58 | 2.0 | 8.0 | 0.00 | 0.00 | 0.00 | 40 | 1022.0 |
| 20260904150637 | 90 | 39 | 2.0 | 8.0 | 0.00 | 0.00 | 0.00 | 40 | 1022.0 |
| 20260904150334 | 90 | 46 | 2.0 | 8.0 | 0.00 | 0.00 | 0.00 | 40 | 1022.0 |
| 20260904145832 | 91 | 25 | 2.0 | 8.0 | 0.00 | 0.00 | 0.00 | 39 | 1021.9 |
| 20260904145637 | 91 | 344 | 2.0 | 8.0 | 0.00 | 0.00 | 0.00 | 39 | 1021.9 |
| 20260904145332 | 91 | 304 | 2.0 | 8.0 | 0.00 | 0.00 | 0.00 | 39 | 1021.8 |
| 20260904144831 | 91 | 292 | 4.0 | 8.0 | 0.00 | 0.00 | 0.00 | 39 | 1021.9 |
| 20260904144637 | 91 | 295 | 4.0 | 8.0 | 0.00 | 0.00 | 0.00 | 39 | 1021.8 |
| 20260904144332 | 91 | 278 | 4.0 | 8.0 | 0.00 | 0.00 | 0.00 | 39 | 1022.0 |
| 20260904143833 | 91 | 300 | 3.0 | 8.0 | 0.00 | 0.00 | 0.00 | 39 | 1021.9 |
| 20260904143636 | 91 | 21 | 2.0 | 8.0 | 0.00 | 0.00 | 0.00 | 39 | 1022.0 |
| 20260904143333 | 91 | 33 | 3.0 | 7.0 | 0.00 | 0.00 | 0.00 | 38 | 1022.1 |
| 20260904142830 | 91 | 32 | 3.0 | 7.0 | 0.00 | 0.00 | 0.00 | 38 | 1022.0 |
| 20260904142637 | 91 | 38 | 3.0 | 7.0 | 0.00 | 0.00 | 0.00 | 38 | 1022.1 |
| 20260904142330 | 91 | 114 | 3.0 | 7.0 | 0.00 | 0.00 | 0.00 | 38 | 1022.0 |
| 20260904141830 | 91 | 73 | 3.0 | 7.0 | 0.00 | 0.00 | 0.00 | 38 | 1022.1 |
| 20260904141636 | 91 | 49 | 3.0 | 7.0 | 0.00 | 0.00 | 0.00 | 37 | 1022.1 |
| 20260904141330 | 91 | 33 | 3.0 | 7.0 | 0.00 | 0.00 | 0.00 | 37 | 1022.0 |
| 20260904140828 | 91 | 40 | 3.0 | 7.0 | 0.00 | 0.00 | 0.00 | 37 | 1022.0 |
| 20260904140637 | 91 | 26 | 4.0 | 7.0 | 0.00 | 0.00 | 0.00 | 37 | 1022.1 |
| 20260904140558 | 91 | 342 | 5.0 | 7.0 | 0.00 | 0.00 | 0.00 | 37 | 1022.0 |
| 20260904135828 | 91 | 300 | 6.0 | 6.0 | 0.00 | 0.00 | 0.00 | 38 | 1021.9 |
| 20260904135636 | 91 | 295 | 6.0 | 6.0 | 0.00 | 0.00 | 0.00 | 38 | 1022.1 |
| 20260904135328 | 91 | 251 | 5.0 | 9.0 | 0.00 | 0.00 | 0.00 | 38 | 1022.1 |
| 20260904134825 | 91 | 158 | 3.0 | 9.0 | 0.00 | 0.00 | 0.00 | 38 | 1022.1 |
| 20260904134636 | 91 | 157 | 3.0 | 9.0 | 0.00 | 0.00 | 0.00 | 38 | 1022.1 |
| 20260904134556 | 91 | 153 | 3.0 | 9.0 | 0.00 | 0.00 | 0.00 | 38 | 1022.1 |
| 20260904133825 | 91 | 144 | 3.0 | 11.0 | 0.00 | 0.00 | 0.00 | 38 | 1021.9 |
| 20260904133636 | 91 | 144 | 3.0 | 11.0 | 0.00 | 0.00 | 0.00 | 38 | 1022.0 |
| 20260904133326 | 91 | 339 | 2.0 | 11.0 | 0.00 | 0.00 | 0.00 | 38 | 1022.0 |
| 20260904133104 | 91 | 287 | 2.0 | 11.0 | 0.00 | 0.00 | 0.00 | 38 | 1022.0 |
| 20260904132636 | 91 | 237 | 2.0 | 11.0 | 0.00 | 0.00 | 0.00 | 38 | 1022.1 |
| 20260904132326 | 91 | 181 | 2.0 | 11.0 | 0.00 | 0.00 | 0.00 | 37 | 1022.0 |
| 20260904131828 | 91 | 177 | 2.0 | 10.0 | 0.00 | 0.00 | 0.00 | 38 | 1021.9 |
| 20260904131636 | 91 | 220 | 2.0 | 10.0 | 0.00 | 0.00 | 0.00 | 38 | 1022.0 |
| 20260904131326 | 91 | 245 | 2.0 | 10.0 | 0.00 | 0.00 | 0.00 | 38 | 1022.1 |
| 20260904130825 | 90 | 301 | 3.0 | 9.0 | 0.00 | 0.00 | 0.00 | 38 | 1022.1 |
| 20260904130637 | 90 | 303 | 3.0 | 12.0 | 0.00 | 0.00 | 0.00 | 38 | 1022.0 |
| 20260904130326 | 90 | 59 | 3.0 | 13.0 | 0.00 | 0.00 | 0.00 | 39 | 1022.1 |
| 20260904125826 | 90 | 147 | 3.0 | 13.0 | 0.00 | 0.00 | 0.00 | 39 | 1022.3 |
| 20260904125635 | 90 | 154 | 3.0 | 13.0 | 0.00 | 0.00 | 0.00 | 38 | 1022.3 |
| 20260904125326 | 90 | 171 | 4.0 | 13.0 | 0.00 | 0.00 | 0.00 | 39 | 1022.4 |
| 20260904124827 | 89 | 173 | 4.0 | 13.0 | 0.00 | 0.00 | 0.00 | 39 | 1022.1 |
| 20260904124635 | 89 | 175 | 4.0 | 13.0 | 0.00 | 0.00 | 0.00 | 39 | 1022.4 |
| 20260904124325 | 89 | 201 | 4.0 | 12.0 | 0.00 | 0.00 | 0.00 | 40 | 1022.4 |
| 20260904123825 | 89 | 271 | 5.0 | 12.0 | 0.00 | 0.00 | 0.00 | 40 | 1022.3 |
| 20260904123636 | 89 | 257 | 5.0 | 12.0 | 0.00 | 0.00 | 0.00 | 40 | 1022.3 |
| 20260904123326 | 88 | 257 | 5.0 | 12.0 | 0.00 | 0.00 | 0.00 | 40 | 1022.3 |
| 20260904122826 | 88 | 118 | 6.0 | 11.0 | 0.00 | 0.00 | 0.00 | 41 | 1022.3 |
| 20260904122633 | 88 | 61 | 6.0 | 11.0 | 0.00 | 0.00 | 0.00 | 41 | 1022.4 |
| 20260904122325 | 87 | 79 | 5.0 | 11.0 | 0.00 | 0.00 | 0.00 | 41 | 1022.5 |
| 20260904121826 | 88 | 291 | 4.0 | 12.0 | 0.00 | 0.00 | 0.00 | 40 | 1022.5 |
| 20260904121632 | 88 | 276 | 4.0 | 13.0 | 0.00 | 0.00 | 0.00 | 40 | 1022.5 |
| 20260904121325 | 88 | 264 | 4.0 | 13.0 | 0.00 | 0.00 | 0.00 | 40 | 1022.4 |
| 20260904120825 | 88 | 229 | 5.0 | 14.0 | 0.00 | 0.00 | 0.00 | 41 | 1022.4 |
| 20260904120631 | 88 | 205 | 5.0 | 14.0 | 0.00 | 0.00 | 0.00 | 40 | 1022.5 |
| 20260904120326 | 88 | 219 | 5.0 | 14.0 | 0.00 | 0.00 | 0.00 | 40 | 1022.5 |
| 20260904115825 | 87 | 167 | 6.0 | 14.0 | 0.00 | 0.00 | 0.00 | 40 | 1022.5 |
| 20260904115631 | 87 | 44 | 5.0 | 14.0 | 0.00 | 0.00 | 0.00 | 41 | 1022.5 |
| 20260904115326 | 87 | 56 | 5.0 | 14.0 | 0.00 | 0.00 | 0.00 | 41 | 1022.6 |
| 20260904114825 | 87 | 78 | 4.0 | 10.0 | 0.00 | 0.00 | 0.00 | 41 | 1022.7 |
| 20260904114631 | 86 | 83 | 4.0 | 10.0 | 0.00 | 0.00 | 0.00 | 42 | 1022.6 |
| 20260904114326 | 86 | 102 | 4.0 | 10.0 | 0.00 | 0.00 | 0.00 | 41 | 1022.7 |
| 20260904113825 | 86 | 100 | 4.0 | 10.0 | 0.00 | 0.00 | 0.00 | 41 | 1022.4 |
| 20260904113630 | 86 | 102 | 5.0 | 10.0 | 0.00 | 0.00 | 0.00 | 41 | 1022.4 |
| 20260904113325 | 86 | 97 | 5.0 | 10.0 | 0.00 | 0.00 | 0.00 | 41 | 1022.4 |
| 20260904112826 | 86 | 109 | 5.0 | 10.0 | 0.00 | 0.00 | 0.00 | 40 | 1022.6 |
| 20260904112628 | 86 | 112 | 5.0 | 10.0 | 0.00 | 0.00 | 0.00 | 41 | 1022.6 |
| 20260904112326 | 86 | 114 | 4.0 | 10.0 | 0.00 | 0.00 | 0.00 | 41 | 1022.5 |
| 20260904111826 | 86 | 106 | 4.0 | 11.0 | 0.00 | 0.00 | 0.00 | 41 | 1022.7 |
| 20260904111627 | 85 | 102 | 4.0 | 11.0 | 0.00 | 0.00 | 0.00 | 42 | 1022.7 |
| 20260904111326 | 85 | 98 | 4.0 | 11.0 | 0.00 | 0.00 | 0.00 | 41 | 1022.6 |
| 20260904110828 | 85 | 86 | 5.0 | 11.0 | 0.00 | 0.00 | 0.00 | 42 | 1022.6 |
| 20260904110626 | 85 | 71 | 4.0 | 11.0 | 0.00 | 0.00 | 0.00 | 42 | 1022.7 |
| 20260904110326 | 85 | 33 | 4.0 | 11.0 | 0.00 | 0.00 | 0.00 | 42 | 1022.7 |
| 20260904105826 | 85 | 52 | 3.0 | 10.0 | 0.00 | 0.00 | 0.00 | 43 | 1022.8 |
| 20260904105625 | 84 | 59 | 4.0 | 10.0 | 0.00 | 0.00 | 0.00 | 43 | 1022.7 |
| 20260904105326 | 84 | 75 | 5.0 | 10.0 | 0.00 | 0.00 | 0.00 | 43 | 1022.9 |
| 20260904104826 | 83 | 67 | 5.0 | 10.0 | 0.00 | 0.00 | 0.00 | 44 | 1022.8 |
| 20260904104626 | 84 | 68 | 5.0 | 10.0 | 0.00 | 0.00 | 0.00 | 43 | 1022.9 |
| 20260904104555 | 84 | 59 | 5.0 | 10.0 | 0.00 | 0.00 | 0.00 | 43 | 1022.9 |
| 20260904103825 | 84 | 47 | 4.0 | 10.0 | 0.00 | 0.00 | 0.00 | 43 | 1022.9 |
| 20260904103625 | 84 | 43 | 4.0 | 10.0 | 0.00 | 0.00 | 0.00 | 43 | 1022.9 |
| 20260904103325 | 84 | 43 | 3.0 | 9.0 | 0.00 | 0.00 | 0.00 | 42 | 1022.9 |
| 20260904102825 | 83 | 55 | 3.0 | 8.0 | 0.00 | 0.00 | 0.00 | 43 | 1023.1 |
| 20260904102625 | 83 | 62 | 3.0 | 8.0 | 0.00 | 0.00 | 0.00 | 43 | 1023.0 |
| 20260904102326 | 83 | 68 | 3.0 | 8.0 | 0.00 | 0.00 | 0.00 | 43 | 1023.1 |
| 20260904101825 | 83 | 79 | 3.0 | 7.0 | 0.00 | 0.00 | 0.00 | 43 | 1023.1 |
| 20260904101625 | 83 | 89 | 3.0 | 7.0 | 0.00 | 0.00 | 0.00 | 42 | 1023.2 |
| 20260904101601 | 83 | 84 | 3.0 | 7.0 | 0.00 | 0.00 | 0.00 | 42 | 1023.2 |
| 20260904100825 | 83 | 88 | 3.0 | 8.0 | 0.00 | 0.00 | 0.00 | 42 | 1023.3 |
| 20260904100627 | 83 | 80 | 3.0 | 8.0 | 0.00 | 0.00 | 0.00 | 41 | 1023.3 |
| 20260904100327 | 82 | 91 | 4.0 | 8.0 | 0.00 | 0.00 | 0.00 | 41 | 1023.2 |
| 20260904095827 | 82 | 74 | 4.0 | 8.0 | 0.00 | 0.00 | 0.00 | 41 | 1023.3 |
| 20260904095627 | 83 | 75 | 3.0 | 8.0 | 0.00 | 0.00 | 0.00 | 41 | 1023.3 |
| 20260904095327 | 83 | 61 | 3.0 | 8.0 | 0.00 | 0.00 | 0.00 | 41 | 1023.4 |
| 20260904094825 | 83 | 95 | 3.0 | 7.0 | 0.00 | 0.00 | 0.00 | 41 | 1023.6 |
| 20260904094626 | 83 | 122 | 3.0 | 7.0 | 0.00 | 0.00 | 0.00 | 40 | 1023.5 |
| 20260904094325 | 83 | 155 | 2.0 | 7.0 | 0.00 | 0.00 | 0.00 | 40 | 1023.6 |
| 20260904093838 | 83 | 116 | 2.0 | 5.0 | 0.00 | 0.00 | 0.00 | 37 | 1023.7 |
| 20260904093830 | 83 | 90 | 2.0 | 7.0 | 0.00 | 0.00 | 0.00 | 40 | 1023.7 |
| 20260904093812 | 83 | 108 | 2.0 | 7.0 | 0.00 | 0.00 | 0.00 | 38 | 1023.6 |
| 20260904092825 | 83 | 139 | 2.0 | 2.0 | 0.00 | 0.00 | 0.00 | 32 | 1023.8 |
| 20260904092625 | 83 | 133 | 1.0 | 2.0 | 0.00 | 0.00 | 0.00 | 32 | 1023.8 |
| 20260904092326 | 83 | 144 | 0.0 | 2.0 | 0.00 | 0.00 | 0.00 | 32 | 1023.8 |
| 20260904091826 | 83 | 154 | 0.0 | 2.0 | 0.00 | 0.00 | 0.00 | 32 | 1023.8 |
| 20260904091625 | 83 | 154 | 0.0 | 3.0 | 0.00 | 0.00 | 0.00 | 32 | 1023.8 |
| 20260904091326 | 83 | 154 | 0.0 | 3.0 | 0.00 | 0.00 | 0.00 | 32 | 1023.9 |
| 20260904090825 | 83 | 151 | 0.0 | 3.0 | 0.00 | 0.00 | 0.00 | 32 | 1023.8 |
| 20260904090625 | 83 | 150 | 0.0 | 3.0 | 0.00 | 0.00 | 0.00 | 32 | 1023.8 |
| 20260904090326 | 83 | 160 | 1.0 | 3.0 | 0.00 | 0.00 | 0.00 | 32 | 1023.9 |
| 20260904085826 | 83 | 208 | 1.0 | 3.0 | 0.00 | 0.00 | 0.00 | 31 | 1023.9 |
| 20260904085626 | 83 | 225 | 1.0 | 3.0 | 0.00 | 0.00 | 0.00 | 31 | 1023.8 |
| 20260904085325 | 82 | 232 | 1.0 | 3.0 | 0.00 | 0.00 | 0.00 | 32 | 1023.8 |
| 20260904084827 | 82 | 192 | 1.0 | 2.0 | 0.00 | 0.00 | 0.00 | 32 | 1023.8 |
| 20260904084630 | 82 | 175 | 0.0 | 2.0 | 0.00 | 0.00 | 0.00 | 33 | 1023.9 |
| 20260904084325 | 82 | 155 | 0.0 | 2.0 | 0.00 | 0.00 | 0.00 | 33 | 1023.7 |
| 20260904083825 | 82 | 149 | 0.0 | 2.0 | 0.00 | 0.00 | 0.00 | 34 | 1023.7 |
| 20260904083625 | 82 | 158 | 0.0 | 2.0 | 0.00 | 0.00 | 0.00 | 34 | 1023.8 |
| 20260904083322 | 82 | 169 | 0.0 | 2.0 | 0.00 | 0.00 | 0.00 | 35 | 1023.7 |
| 20260904082822 | 81 | 205 | 0.0 | 2.0 | 0.00 | 0.00 | 0.00 | 36 | 1023.7 |
| 20260904082626 | 81 | 213 | 1.0 | 2.0 | 0.00 | 0.00 | 0.00 | 36 | 1023.6 |
| 20260904082322 | 81 | 211 | 0.0 | 2.0 | 0.00 | 0.00 | 0.00 | 35 | 1023.7 |
| 20260904081822 | 81 | 179 | 0.0 | 2.0 | 0.00 | 0.00 | 0.00 | 35 | 1023.7 |
| 20260904081626 | 81 | 166 | 0.0 | 2.0 | 0.00 | 0.00 | 0.00 | 35 | 1023.8 |
| 20260904081549 | 81 | 161 | 0.0 | 1.0 | 0.00 | 0.00 | 0.00 | 35 | 1023.7 |
| 20260904080821 | 81 | 159 | 0.0 | 1.0 | 0.00 | 0.00 | 0.00 | 35 | 1023.8 |
| 20260904080626 | 81 | 147 | 0.0 | 1.0 | 0.00 | 0.00 | 0.00 | 35 | 1023.8 |
| 20260904080321 | 80 | 123 | 0.0 | 1.0 | 0.00 | 0.00 | 0.00 | 37 | 1023.7 |
| 20260904075822 | 75 | 94 | 1.0 | 1.0 | 0.00 | 0.00 | 0.00 | 43 | 1023.4 |
| 20260904075626 | 75 | 94 | 1.0 | 1.0 | 0.00 | 0.00 | 0.00 | 43 | 1023.5 |
| 20260904075321 | 75 | 94 | 1.0 | 1.0 | 0.00 | 0.00 | 0.00 | 43 | 1023.4 |
| 20260904074821 | 75 | 94 | 1.0 | 1.0 | 0.00 | 0.00 | 0.00 | 43 | 1023.4 |
| 20260904074625 | 75 | 94 | 0.0 | 1.0 | 0.00 | 0.00 | 0.00 | 43 | 1023.4 |
| 20260904074558 | 75 | 94 | 0.0 | 1.0 | 0.00 | 0.00 | 0.00 | 43 | 1023.4 |
| 20260904073821 | 75 | 94 | 0.0 | 0.0 | 0.00 | 0.00 | 0.00 | 43 | 1023.5 |
| 20260904073627 | 75 | 94 | 0.0 | 0.0 | 0.00 | 0.00 | 0.00 | 43 | 1023.4 |
| 20260904073321 | 75 | 94 | 0.0 | 1.0 | 0.00 | 0.00 | 0.00 | 43 | 1023.4 |
| 20260904072821 | 75 | 93 | 0.0 | 2.0 | 0.00 | 0.00 | 0.00 | 43 | 1023.4 |
| 20260904072627 | 75 | 92 | 0.0 | 2.0 | 0.00 | 0.00 | 0.00 | 43 | 1023.4 |
| 20260904072322 | 75 | 92 | 0.0 | 2.0 | 0.00 | 0.00 | 0.00 | 44 | 1023.4 |
| 20260904071822 | 73 | 94 | 0.0 | 2.0 | 0.00 | 0.00 | 0.00 | 45 | 1023.2 |
| 20260904071626 | 72 | 93 | 1.0 | 2.0 | 0.00 | 0.00 | 0.00 | 46 | 1023.2 |
| 20260904071551 | 72 | 98 | 1.0 | 2.0 | 0.00 | 0.00 | 0.00 | 46 | 1023.2 |
| 20260904070821 | 72 | 68 | 0.0 | 2.0 | 0.00 | 0.00 | 0.00 | 45 | 1023.1 |
| 20260904070626 | 73 | 55 | 0.0 | 2.0 | 0.00 | 0.00 | 0.00 | 46 | 1023.2 |
| 20260904070320 | 73 | 34 | 0.0 | 0.0 | 0.00 | 0.00 | 0.00 | 47 | 1023.1 |
| 20260904070048 | 72 | 31 | 0.0 | 1.0 | 0.00 | 0.00 | 0.00 | 49 | 1023.2 |
| 20260904065626 | 71 | 30 | 0.0 | 1.0 | 0.00 | 0.00 | 0.00 | 48 | 1023.1 |
| 20260904065547 | 71 | 29 | 0.0 | 1.0 | 0.00 | 0.00 | 0.00 | 48 | 1023.1 |
| 20260904064818 | 70 | 27 | 0.0 | 4.0 | 0.00 | 0.00 | 0.00 | 50 | 1023.0 |
| 20260904064627 | 69 | 27 | 0.0 | 4.0 | 0.00 | 0.00 | 0.00 | 50 | 1023.0 |
| 20260904064549 | 69 | 26 | 0.0 | 4.0 | 0.00 | 0.00 | 0.00 | 51 | 1022.9 |
| 20260904063816 | 68 | 12 | 1.0 | 4.0 | 0.00 | 0.00 | 0.00 | 50 | 1023.1 |
| 20260904063627 | 68 | 335 | 2.0 | 4.0 | 0.00 | 0.00 | 0.00 | 49 | 1023.0 |
| 20260904063316 | 68 | 263 | 3.0 | 4.0 | 0.00 | 0.00 | 0.00 | 49 | 1023.0 |
| 20260904062817 | 70 | 250 | 4.0 | 4.0 | 0.00 | 0.00 | 0.00 | 43 | 1023.1 |
| 20260904062629 | 70 | 250 | 4.0 | 4.0 | 0.00 | 0.00 | 0.00 | 43 | 1023.1 |
| 20260904062548 | 70 | 250 | 4.0 | 4.0 | 0.00 | 0.00 | 0.00 | 43 | 1023.1 |
| 20260904061815 | 70 | 250 | 4.0 | 4.0 | 0.00 | 0.00 | 0.00 | 43 | 1023.1 |
| 20260904061626 | 70 | 250 | 4.0 | 4.0 | 0.00 | 0.00 | 0.00 | 43 | 1023.0 |
| 20260904061316 | 70 | 250 | 4.0 | 4.0 | 0.00 | 0.00 | 0.00 | 43 | 1023.0 |
| 20260904060816 | 70 | 250 | 4.0 | 4.0 | 0.00 | 0.00 | 0.00 | 43 | 1022.9 |
| 20260904060626 | 70 | 250 | 4.0 | 4.0 | 0.00 | 0.00 | 0.00 | 43 | 1022.8 |
| 20260904060546 | 70 | 250 | 4.0 | 4.0 | 0.00 | 0.00 | 0.00 | 43 | 1022.8 |
| 20260904060044 | 70 | 250 | 4.0 | 4.0 | 0.00 | 0.00 | 0.00 | 43 | 1022.8 |
| 20260904055625 | 70 | 250 | 4.0 | 4.0 | 0.00 | 0.00 | 0.00 | 43 | 1022.8 |
| 20260904055317 | 70 | 250 | 4.0 | 4.0 | 0.00 | 0.00 | 0.00 | 43 | 1022.8 |
| 20260904054818 | 70 | 250 | 4.0 | 4.0 | 0.00 | 0.00 | 0.00 | 43 | 1022.8 |
| 20260904054625 | 70 | 250 | 4.0 | 4.0 | 0.00 | 0.00 | 0.00 | 43 | 1022.8 |
| 20260904054316 | 70 | 252 | 4.0 | 4.0 | 0.00 | 0.00 | 0.00 | 43 | 1022.8 |
| 20260904053816 | 70 | 270 | 3.0 | 4.0 | 0.00 | 0.00 | 0.00 | 43 | 1022.8 |
| 20260904053626 | 70 | 276 | 3.0 | 4.0 | 0.00 | 0.00 | 0.00 | 43 | 1022.8 |
| 20260904053316 | 70 | 285 | 3.0 | 3.0 | 0.00 | 0.00 | 0.00 | 43 | 1022.8 |
| 20260904052816 | 70 | 285 | 3.0 | 3.0 | 0.00 | 0.00 | 0.00 | 43 | 1022.6 |
| 20260904052625 | 70 | 285 | 3.0 | 3.0 | 0.00 | 0.00 | 0.00 | 43 | 1022.6 |
| 20260904052316 | 70 | 285 | 3.0 | 3.0 | 0.00 | 0.00 | 0.00 | 43 | 1022.6 |
| 20260904051817 | 70 | 285 | 3.0 | 3.0 | 0.00 | 0.00 | 0.00 | 43 | 1022.6 |
| 20260904051626 | 70 | 285 | 3.0 | 4.0 | 0.00 | 0.00 | 0.00 | 43 | 1022.6 |
| 20260904051316 | 70 | 285 | 3.0 | 5.0 | 0.00 | 0.00 | 0.00 | 43 | 1022.6 |
| 20260904051043 | 70 | 285 | 3.0 | 5.0 | 0.00 | 0.00 | 0.00 | 43 | 1022.6 |
| 20260904050626 | 70 | 285 | 3.0 | 5.0 | 0.00 | 0.00 | 0.00 | 43 | 1022.6 |
| 20260904050315 | 70 | 280 | 2.0 | 5.0 | 0.00 | 0.00 | 0.00 | 43 | 1022.6 |
| 20260904045816 | 70 | 282 | 1.0 | 5.0 | 0.00 | 0.00 | 0.00 | 43 | 1022.6 |
| 20260904045627 | 69 | 294 | 0.0 | 5.0 | 0.00 | 0.00 | 0.00 | 43 | 1022.6 |
| 20260904045324 | 69 | 335 | 1.0 | 4.0 | 0.00 | 0.00 | 0.00 | 44 | 1022.5 |
| 20260904045317 | 70 | 320 | 1.0 | 4.0 | 0.00 | 0.00 | 0.00 | 44 | 1022.5 |
| 20260904044627 | 68 | 346 | 1.0 | 4.0 | 0.00 | 0.00 | 0.00 | 46 | 1022.4 |
| 20260904044316 | 67 | 174 | 0.0 | 3.0 | 0.00 | 0.00 | 0.00 | 50 | 1022.4 |
| 20260904043815 | 68 | 214 | 0.0 | 4.0 | 0.00 | 0.00 | 0.00 | 48 | 1022.5 |
| 20260904043627 | 68 | 242 | 0.0 | 4.0 | 0.00 | 0.00 | 0.00 | 48 | 1022.5 |
| 20260904043313 | 69 | 279 | 0.0 | 4.0 | 0.00 | 0.00 | 0.00 | 47 | 1022.6 |
| 20260904042812 | 69 | 305 | 1.0 | 4.0 | 0.00 | 0.00 | 0.00 | 45 | 1022.7 |
| 20260904042625 | 69 | 311 | 1.0 | 4.0 | 0.00 | 0.00 | 0.00 | 45 | 1022.7 |
| 20260904042312 | 69 | 319 | 1.0 | 4.0 | 0.00 | 0.00 | 0.00 | 44 | 1022.6 |
| 20260904041812 | 69 | 283 | 1.0 | 4.0 | 0.00 | 0.00 | 0.00 | 43 | 1022.6 |
| 20260904041626 | 69 | 258 | 0.0 | 4.0 | 0.00 | 0.00 | 0.00 | 45 | 1022.6 |
| 20260904041312 | 69 | 237 | 0.0 | 4.0 | 0.00 | 0.00 | 0.00 | 47 | 1022.6 |
| 20260904041045 | 70 | 292 | 0.0 | 4.0 | 0.00 | 0.00 | 0.00 | 44 | 1022.6 |
| 20260904040630 | 70 | 316 | 0.0 | 4.0 | 0.00 | 0.00 | 0.00 | 43 | 1022.6 |
| 20260904040543 | 70 | 328 | 1.0 | 4.0 | 0.00 | 0.00 | 0.00 | 44 | 1022.5 |
| 20260904035811 | 69 | 289 | 0.0 | 3.0 | 0.00 | 0.00 | 0.00 | 45 | 1022.5 |
| 20260904035626 | 68 | 295 | 1.0 | 3.0 | 0.00 | 0.00 | 0.00 | 46 | 1022.5 |
| 20260904035310 | 68 | 304 | 1.0 | 4.0 | 0.00 | 0.00 | 0.00 | 49 | 1022.4 |
| 20260904034810 | 68 | 303 | 0.0 | 4.0 | 0.00 | 0.00 | 0.00 | 48 | 1022.5 |
| 20260904034626 | 68 | 291 | 1.0 | 4.0 | 0.00 | 0.00 | 0.00 | 47 | 1022.5 |
| 20260904034310 | 68 | 303 | 0.0 | 4.0 | 0.00 | 0.00 | 0.00 | 49 | 1022.6 |
| 20260904033810 | 67 | 157 | 0.0 | 4.0 | 0.00 | 0.00 | 0.00 | 49 | 1022.7 |
| 20260904033626 | 67 | 162 | 0.0 | 4.0 | 0.00 | 0.00 | 0.00 | 49 | 1022.6 |
| 20260904033310 | 66 | 196 | 0.0 | 0.0 | 0.00 | 0.00 | 0.00 | 52 | 1022.7 |
| 20260904032808 | 67 | 30 | 0.0 | 0.0 | 0.00 | 0.00 | 0.00 | 53 | 1022.6 |
| 20260904032625 | 67 | 34 | 0.0 | 0.0 | 0.00 | 0.00 | 0.00 | 52 | 1022.7 |
| 20260904032306 | 67 | 35 | 0.0 | 0.0 | 0.00 | 0.00 | 0.00 | 51 | 1022.7 |
| 20260904031804 | 67 | 18 | 0.0 | 0.0 | 0.00 | 0.00 | 0.00 | 49 | 1022.8 |
| 20260904031626 | 67 | 13 | 0.0 | 0.0 | 0.00 | 0.00 | 0.00 | 49 | 1022.6 |
| 20260904031303 | 67 | 7 | 0.0 | 0.0 | 0.00 | 0.00 | 0.00 | 52 | 1022.7 |
| 20260904030804 | 66 | 334 | 0.0 | 0.0 | 0.00 | 0.00 | 0.00 | 51 | 1022.8 |
| 20260904030627 | 66 | 312 | 0.0 | 0.0 | 0.00 | 0.00 | 0.00 | 53 | 1022.7 |
| 20260904030304 | 66 | 273 | 0.0 | 0.0 | 0.00 | 0.00 | 0.00 | 51 | 1022.7 |
| 20260904025802 | 66 | 243 | 0.0 | 0.0 | 0.00 | 0.00 | 0.00 | 54 | 1022.8 |
| 20260904025628 | 66 | 233 | 0.0 | 0.0 | 0.00 | 0.00 | 0.00 | 54 | 1022.8 |
| 20260904025305 | 67 | 214 | 0.0 | 0.0 | 0.00 | 0.00 | 0.00 | 53 | 1022.8 |
| 20260904025033 | 67 | 215 | 0.0 | 0.0 | 0.00 | 0.00 | 0.00 | 52 | 1022.7 |
| 20260904024627 | 67 | 217 | 0.0 | 0.0 | 0.00 | 0.00 | 0.00 | 53 | 1022.7 |
| 20260904024303 | 67 | 222 | 0.0 | 0.0 | 0.00 | 0.00 | 0.00 | 52 | 1022.8 |
| 20260904023801 | 67 | 190 | 0.0 | 0.0 | 0.00 | 0.00 | 0.00 | 53 | 1023.2 |
| 20260904023625 | 67 | 164 | 0.0 | 0.0 | 0.00 | 0.00 | 0.00 | 53 | 1023.1 |
| 20260904023301 | 67 | 61 | 0.0 | 0.0 | 0.00 | 0.00 | 0.00 | 53 | 1023.2 |
| 20260904022759 | 67 | 16 | 0.0 | 0.0 | 0.00 | 0.00 | 0.00 | 52 | 1023.1 |
| 20260904022625 | 67 | 12 | 0.0 | 0.0 | 0.00 | 0.00 | 0.00 | 52 | 1023.1 |
| 20260904022258 | 68 | 8 | 0.0 | 0.0 | 0.00 | 0.00 | 0.00 | 50 | 1023.0 |
| 20260904021757 | 68 | 272 | 0.0 | 0.0 | 0.00 | 0.00 | 0.00 | 50 | 1023.0 |
| 20260904021626 | 68 | 240 | 0.0 | 0.0 | 0.00 | 0.00 | 0.00 | 49 | 1023.0 |
| 20260904021529 | 67 | 220 | 0.0 | 0.0 | 0.00 | 0.00 | 0.00 | 53 | 1023.1 |
| 20260904020758 | 67 | 220 | 0.0 | 0.0 | 0.00 | 0.00 | 0.00 | 52 | 1023.1 |
| 20260904020627 | 68 | 220 | 0.0 | 0.0 | 0.00 | 0.00 | 0.00 | 52 | 1023.0 |
| 20260904020303 | 68 | 224 | 0.0 | 0.0 | 0.00 | 0.00 | 0.00 | 51 | 1022.9 |
| 20260904015756 | 68 | 290 | 0.0 | 0.0 | 0.00 | 0.00 | 0.00 | 50 | 1023.1 |
| 20260904015626 | 68 | 314 | 0.0 | 0.0 | 0.00 | 0.00 | 0.00 | 50 | 1023.1 |
| 20260904015525 | 68 | 337 | 0.0 | 0.0 | 0.00 | 0.00 | 0.00 | 48 | 1023.0 |
| 20260904014756 | 68 | 337 | 0.0 | 0.0 | 0.00 | 0.00 | 0.00 | 51 | 1023.0 |
| 20260904014630 | 68 | 337 | 0.0 | 0.0 | 0.00 | 0.00 | 0.00 | 51 | 1023.0 |
| 20260904014255 | 68 | 326 | 0.0 | 1.0 | 0.00 | 0.00 | 0.00 | 53 | 1023.0 |
| 20260904013756 | 68 | 272 | 0.0 | 1.0 | 0.00 | 0.00 | 0.00 | 52 | 1023.5 |
| 20260904013625 | 68 | 257 | 0.0 | 1.0 | 0.00 | 0.00 | 0.00 | 52 | 1023.4 |
| 20260904013256 | 69 | 241 | 0.0 | 1.0 | 0.00 | 0.00 | 0.00 | 51 | 1023.5 |
| 20260904012755 | 69 | 275 | 0.0 | 1.0 | 0.00 | 0.00 | 0.00 | 51 | 1023.4 |
| 20260904012625 | 69 | 299 | 0.0 | 1.0 | 0.00 | 0.00 | 0.00 | 50 | 1023.4 |
| 20260904012256 | 70 | 337 | 0.0 | 1.0 | 0.00 | 0.00 | 0.00 | 50 | 1023.5 |
| 20260904011756 | 70 | 344 | 0.0 | 2.0 | 0.00 | 0.00 | 0.00 | 47 | 1023.6 |
| 20260904011626 | 70 | 345 | 0.0 | 2.0 | 0.00 | 0.00 | 0.00 | 48 | 1023.5 |
| 20260904011255 | 70 | 354 | 0.0 | 2.0 | 0.00 | 0.00 | 0.00 | 48 | 1023.6 |
| 20260904010759 | 70 | 350 | 0.0 | 2.0 | 0.00 | 0.00 | 0.00 | 47 | 1023.6 |
| 20260904010624 | 70 | 329 | 0.0 | 2.0 | 0.00 | 0.00 | 0.00 | 47 | 1023.7 |
| 20260904010255 | 70 | 330 | 0.0 | 2.0 | 0.00 | 0.00 | 0.00 | 48 | 1023.6 |
| 20260904005755 | 70 | 359 | 1.0 | 2.0 | 0.00 | 0.00 | 0.00 | 48 | 1023.6 |
| 20260904005621 | 70 | 7 | 1.0 | 1.0 | 0.00 | 0.00 | 0.00 | 46 | 1023.6 |
| 20260904005256 | 70 | 344 | 1.0 | 1.0 | 0.00 | 0.00 | 0.00 | 45 | 1023.6 |
| 20260904004756 | 70 | 226 | 0.0 | 1.0 | 0.00 | 0.00 | 0.00 | 46 | 1023.6 |
| 20260904004622 | 70 | 219 | 0.0 | 1.0 | 0.00 | 0.00 | 0.00 | 46 | 1023.5 |
| 20260904004256 | 69 | 217 | 0.0 | 1.0 | 0.00 | 0.00 | 0.00 | 47 | 1023.5 |
| 20260904003757 | 69 | 217 | 0.0 | 1.0 | 0.00 | 0.00 | 0.00 | 48 | 1023.5 |
| 20260904003622 | 70 | 217 | 0.0 | 1.0 | 0.00 | 0.00 | 0.00 | 47 | 1023.6 |
| 20260904003257 | 70 | 217 | 0.0 | 1.0 | 0.00 | 0.00 | 0.00 | 48 | 1023.5 |
| 20260904002757 | 70 | 217 | 0.0 | 1.0 | 0.00 | 0.00 | 0.00 | 48 | 1023.7 |
| 20260904002621 | 70 | 217 | 0.0 | 1.0 | 0.00 | 0.00 | 0.00 | 47 | 1023.7 |
| 20260904002258 | 70 | 216 | 0.0 | 1.0 | 0.00 | 0.00 | 0.00 | 47 | 1023.6 |
| 20260904001755 | 70 | 128 | 0.0 | 1.0 | 0.00 | 0.00 | 0.00 | 49 | 1023.6 |
| 20260904001623 | 70 | 91 | 0.0 | 1.0 | 0.00 | 0.00 | 0.00 | 49 | 1023.7 |
| 20260904001256 | 70 | 70 | 0.0 | 2.0 | 0.00 | 0.00 | 0.00 | 48 | 1023.7 |
| 20260904000756 | 70 | 70 | 0.0 | 2.0 | 0.00 | 0.00 | 0.00 | 48 | 1023.6 |
| 20260904000620 | 70 | 69 | 0.0 | 2.0 | 0.00 | 0.00 | 0.00 | 48 | 1023.7 |
| 20260904000259 | 70 | 56 | 0.0 | 2.0 | 0.00 | 0.00 | 0.00 | 47 | 1023.7 |
| 20260903235754 | 71 | 14 | 0.0 | 2.0 | 0.00 | 0.00 | 0.00 | 47 | 1023.7 |
| 20260903235619 | 71 | 350 | 0.0 | 2.0 | 0.00 | 0.00 | 0.00 | 47 | 1023.7 |
| 20260903235251 | 71 | 328 | 0.0 | 2.0 | 0.00 | 0.00 | 0.00 | 47 | 1023.6 |
| 20260903234749 | 72 | 356 | 0.0 | 2.0 | 0.00 | 0.00 | 0.00 | 46 | 1023.8 |
| 20260903234619 | 72 | 7 | 0.0 | 2.0 | 0.00 | 0.00 | 0.00 | 43 | 1023.8 |
| 20260903234246 | 72 | 18 | 0.0 | 4.0 | 0.00 | 0.00 | 0.00 | 42 | 1023.8 |
| 20260903233745 | 73 | 29 | 1.0 | 4.0 | 0.00 | 0.00 | 0.00 | 43 | 1023.8 |
| 20260903233618 | 73 | 31 | 1.0 | 4.0 | 0.00 | 0.00 | 0.00 | 42 | 1023.8 |
| 20260903233518 | 72 | 36 | 1.0 | 4.0 | 0.00 | 0.00 | 0.00 | 42 | 1023.8 |
| 20260903232746 | 72 | 37 | 1.0 | 4.0 | 0.00 | 0.00 | 0.00 | 43 | 1023.8 |
| 20260903232619 | 72 | 34 | 1.0 | 4.0 | 0.00 | 0.00 | 0.00 | 43 | 1023.9 |
| 20260903232246 | 72 | 26 | 1.0 | 2.0 | 0.00 | 0.00 | 0.00 | 44 | 1023.7 |
| 20260903232016 | 73 | 336 | 0.0 | 3.0 | 0.00 | 0.00 | 0.00 | 43 | 1023.6 |
| 20260903231621 | 73 | 320 | 0.0 | 3.0 | 0.00 | 0.00 | 0.00 | 43 | 1023.6 |
| 20260903231247 | 73 | 292 | 0.0 | 3.0 | 0.00 | 0.00 | 0.00 | 43 | 1023.6 |
| 20260903230746 | 73 | 311 | 0.0 | 4.0 | 0.00 | 0.00 | 0.00 | 43 | 1023.7 |
| 20260903230615 | 73 | 327 | 0.0 | 4.0 | 0.00 | 0.00 | 0.00 | 43 | 1023.8 |
| 20260903230246 | 74 | 358 | 0.0 | 4.0 | 0.00 | 0.00 | 0.00 | 42 | 1023.9 |
| 20260903225746 | 74 | 2 | 0.0 | 4.0 | 0.00 | 0.00 | 0.00 | 41 | 1023.7 |
| 20260903225616 | 74 | 10 | 1.0 | 4.0 | 0.00 | 0.00 | 0.00 | 41 | 1023.7 |
| 20260903225246 | 74 | 6 | 1.0 | 4.0 | 0.00 | 0.00 | 0.00 | 41 | 1023.8 |
| 20260903224745 | 74 | 344 | 1.0 | 4.0 | 0.00 | 0.00 | 0.00 | 42 | 1023.8 |
| 20260903224616 | 74 | 334 | 0.0 | 4.0 | 0.00 | 0.00 | 0.00 | 41 | 1023.8 |
| 20260903224244 | 74 | 324 | 1.0 | 4.0 | 0.00 | 0.00 | 0.00 | 41 | 1023.9 |
| 20260903224021 | 74 | 5 | 0.0 | 4.0 | 0.00 | 0.00 | 0.00 | 43 | 1023.9 |
| 20260903223612 | 73 | 20 | 0.0 | 4.0 | 0.00 | 0.00 | 0.00 | 42 | 1023.8 |
| 20260903223243 | 73 | 44 | 0.0 | 2.0 | 0.00 | 0.00 | 0.00 | 44 | 1023.7 |
| 20260903222743 | 74 | 29 | 0.0 | 3.0 | 0.00 | 0.00 | 0.00 | 43 | 1023.9 |
| 20260903222611 | 74 | 25 | 1.0 | 3.0 | 0.00 | 0.00 | 0.00 | 43 | 1023.8 |
| 20260903222244 | 74 | 13 | 1.0 | 3.0 | 0.00 | 0.00 | 0.00 | 42 | 1023.8 |
| 20260903221744 | 74 | 8 | 1.0 | 3.0 | 0.00 | 0.00 | 0.00 | 42 | 1023.8 |
| 20260903221612 | 74 | 10 | 1.0 | 3.0 | 0.00 | 0.00 | 0.00 | 42 | 1023.9 |
| 20260903221508 | 74 | 11 | 1.0 | 3.0 | 0.00 | 0.00 | 0.00 | 43 | 1023.8 |
| 20260903220742 | 74 | 0 | 0.0 | 4.0 | 0.00 | 0.00 | 0.00 | 44 | 1023.9 |
| 20260903220610 | 74 | 350 | 0.0 | 4.0 | 0.00 | 0.00 | 0.00 | 44 | 1023.9 |
| 20260903220454 | 74 | 337 | 1.0 | 4.0 | 0.00 | 0.00 | 0.00 | 43 | 1023.9 |
| 20260903215611 | 75 | 338 | 2.0 | 4.0 | 0.00 | 0.00 | 0.00 | 42 | 1024.1 |
| 20260903215241 | 75 | 341 | 2.0 | 4.0 | 0.00 | 0.00 | 0.00 | 42 | 1024.2 |
| 20260903214759 | 75 | 290 | 1.0 | 4.0 | 0.00 | 0.00 | 0.00 | 43 | 1024.1 |
| 20260903214749 | 75 | 314 | 2.0 | 4.0 | 0.00 | 0.00 | 0.00 | 43 | 1024.1 |
| 20260903214736 | 75 | 301 | 2.0 | 4.0 | 0.00 | 0.00 | 0.00 | 42 | 1024.1 |
| 20260903213741 | 75 | 312 | 1.0 | 4.0 | 0.00 | 0.00 | 0.00 | 42 | 1023.9 |
| 20260903213610 | 75 | 330 | 1.0 | 4.0 | 0.00 | 0.00 | 0.00 | 42 | 1023.9 |
| 20260903213252 | 75 | 350 | 1.0 | 4.0 | 0.00 | 0.00 | 0.00 | 43 | 1023.9 |
| 20260903213241 | 75 | 333 | 1.0 | 4.0 | 0.00 | 0.00 | 0.00 | 42 | 1023.9 |
| 20260903212607 | 75 | 345 | 1.0 | 4.0 | 0.00 | 0.00 | 0.00 | 43 | 1023.9 |
| 20260903212511 | 75 | 338 | 1.0 | 4.0 | 0.00 | 0.00 | 0.00 | 43 | 1023.9 |
| 20260903211741 | 75 | 305 | 1.0 | 4.0 | 0.00 | 0.00 | 0.00 | 44 | 1023.8 |
| 20260903211608 | 75 | 296 | 1.0 | 4.0 | 0.00 | 0.00 | 0.00 | 44 | 1023.9 |
| 20260903211512 | 75 | 301 | 1.0 | 4.0 | 0.00 | 0.00 | 0.00 | 44 | 1023.8 |
| 20260903211010 | 74 | 313 | 0.0 | 3.0 | 0.00 | 0.00 | 0.00 | 46 | 1023.8 |
| 20260903210607 | 74 | 331 | 0.0 | 4.0 | 0.00 | 0.00 | 0.00 | 48 | 1023.8 |
| 20260903210239 | 74 | 7 | 0.0 | 4.0 | 0.00 | 0.00 | 0.00 | 49 | 1023.8 |